STARLINK-5168, 54071

Orbit data source: Space-Track

STARLINK-5168, 54071 is a payload satellite owned by SpaceX/Seattle (US) in LEO that was launched on Thu, 20 Oct 2022 UTC via an FALCON 9 launch vehicle from the Air Force Eastern Test Range (AFETR). Payload-class satellites include a variety of spacecraft equipped with specific instruments for various scientific and technological missions. These include communications satellites like Starlink; space stations such as the ISS; scientific satellites like the Hubble; Earth observation satellites from companies like Planet Labs, Umbra, and HawkEye 360; GPS; miniature CubeSats for education and research; and military/defense satellites.

Loading next visibility...
Identifier
54071, 2022-136W
Orbit
LEO
Country
Flag of USUS
Related business
Manufacturer
SpaceX/Seattle
Mission
Operational Commercial Communications
Bus & Motor
STARLINK, Unknown motor
Mass
305 kg wet, ~290 kg dry
Launch date (UTC)
2022-10-20 (3 years ago)
Launch vehicle
FALCON 9
Launch site
Air Force Eastern Test Range (AFETR)
Object type
Payload
Rocket body
Debris
Shape & HBR
Box + 1 Pan, 10.1 m
Radar Cross Section
13.562 m², Large (>1 m²)

Expand to show TLE details & history
Last TLE update: 7 hours ago

TLE from 7 hours ago
0 STARLINK-5168
1 54071U 22136W   25303.75850566  .00001894  00000-0  13699-3 0  9999
2 54071  53.2169 207.0608 0001314  96.8608 263.2533 15.08853097167233
Epoch: 2025-10-30T18:12Z
TLE epoch observation values (Epoch: 2025-10-30T18:12:14.889Z)
Latitude
-0.00005°
Longitude
-105.31397°
Altitude
540.708 km
Speed
7.593 km/s
True Right ascension
13h 48m 14s
True Declination
0° 00' 00"
Sunlit
Object was in daylight at epoch
Visualization orbit readout
Latitude
Unknown
Longitude
Unknown
Altitude
Unknown
Speed
Unknown
Apparent Right ascension
Unknown
Apparent Declination
Unknown
Sunlit
N/A
Visualization observer readout
Local Sidereal Time
20:38:06
Azimuth
Unknown
Elevation
Unknown
Doppler factor
Unknown
Orbital elements
Apogee altitude
540.857 km
Perigee altitude
539.039 km
Semi-major axis
6,918.085 km
Eccentricity
0.00013
Inclination
53.2169°
RAAN
207.0608°
Arg. of periapsis
96.8608°
True anomaly
263.23835°
Mean anomaly
263.2533°
Eccentric anomaly
263.24582°
Mean motion
3.77194 °/min
Orbital period
95.44 mins
BSTAR
0.00013699
Loading maneuver chart data...
Computing Atmospheric mass density...
Loading historical data...
Loading historical data...
Loading historical data...
Loading historical data...
Loading historical data...
Loading historical data...
Loading historical data...

Documentation

Showing up to 5 results
|